TimeMST,TemperatureF,Dew PointF,Humidity,Sea Level PressureIn,VisibilityMPH,Wind Direction,Wind SpeedMPH,Gust SpeedMPH,PrecipitationIn,Events,Conditions,WindDirDegrees,DateUTC
12:53 AM,46.9,21.9,37,29.57,10.0,West,23.0,35.7,N/A,,Clear,260,2013-03-04 07:53:00
1:53 AM,46.0,21.9,39,29.60,10.0,West,18.4,27.6,N/A,,Clear,260,2013-03-04 08:53:00
2:53 AM,45.0,19.9,37,29.62,10.0,WSW,17.3,-,N/A,,Clear,250,2013-03-04 09:53:00
3:53 AM,43.0,17.1,35,29.60,10.0,WSW,15.0,23.0,N/A,,Clear,250,2013-03-04 10:53:00
4:53 AM,43.0,16.0,34,29.62,10.0,West,15.0,24.2,N/A,,Clear,270,2013-03-04 11:53:00
5:53 AM,39.9,16.0,38,29.67,10.0,Calm,Calm,-,N/A,,Clear,0,2013-03-04 12:53:00
6:53 AM,41.0,16.0,36,29.67,10.0,South,5.8,-,N/A,,Clear,170,2013-03-04 13:53:00
7:53 AM,46.9,17.1,30,29.67,10.0,South,4.6,-,N/A,,Clear,180,2013-03-04 14:53:00
8:53 AM,51.1,16.0,25,29.65,10.0,West,15.0,32.2,N/A,,Clear,280,2013-03-04 15:53:00
9:53 AM,53.1,15.1,22,29.63,10.0,West,19.6,38.0,N/A,,Clear,270,2013-03-04 16:53:00
10:53 AM,54.0,16.0,22,29.62,10.0,West,34.5,47.2,N/A,,Partly Cloudy,270,2013-03-04 17:53:00
11:53 AM,55.9,16.0,21,29.58,6.0,West,35.7,49.5,N/A,,Haze,270,2013-03-04 18:53:00
12:53 PM,55.0,15.1,21,29.58,9.0,West,36.8,50.6,N/A,,Clear,270,2013-03-04 19:53:00
1:53 PM,54.0,19.0,25,29.60,10.0,West,33.4,42.6,N/A,,Clear,270,2013-03-04 20:53:00
2:53 PM,54.0,18.0,24,29.63,10.0,WNW,25.3,43.7,N/A,,Clear,300,2013-03-04 21:53:00
3:53 PM,52.0,19.0,27,29.66,10.0,West,24.2,31.1,N/A,,Clear,280,2013-03-04 22:53:00
4:53 PM,51.1,18.0,27,29.69,10.0,WNW,17.3,-,N/A,,Clear,290,2013-03-04 23:53:00
5:53 PM,48.0,16.0,28,29.74,10.0,West,24.2,28.8,N/A,,Clear,280,2013-03-05 00:53:00
6:53 PM,43.0,12.9,30,29.82,10.0,North,4.6,-,N/A,,Clear,350,2013-03-05 01:53:00
7:53 PM,44.1,14.0,30,29.83,10.0,NW,5.8,-,N/A,,Clear,310,2013-03-05 02:53:00
8:53 PM,28.9,17.1,61,29.97,10.0,ENE,23.0,31.1,N/A,,Clear,70,2013-03-05 03:53:00
9:53 PM,25.0,15.1,66,30.04,10.0,ENE,18.4,-,N/A,,Clear,60,2013-03-05 04:53:00
10:53 PM,21.9,12.9,68,30.08,10.0,ENE,12.7,-,N/A,,Clear,70,2013-03-05 05:53:00